Miscellaneous Local Product
Issued by NWS North Platte, NE

Home | Current Version | Previous Version | Graphics & Text | Print | Product List | Glossary On
Versions: 1 2 3 4 5 6 7 8 9 10 11 12 13 14 15 16 17 18 19 20 21 22 23 24 25 26 27 28 29 30 31 32 33 34 35 36 37 38 39 40 41 42 43 44 45 46 47 48 49 50
968
AXUS43 KLBF 101910
MISLBF


WESTERN AND NORTH CENTRAL NEBRASKA HOURLY WEATHER ROUNDUP
NATIONAL WEATHER SERVICE NORTH PLATTE NE
100 PM CST WED FEB 10 2016

NOTE: "FAIR" INDICATES FEW OR NO CLOUDS BELOW 12,000 FEET WITH NO
SIGNIFICANT WEATHER AND/OR OBSTRUCTIONS TO VISIBILITY.

NOTE: STATIONS NOT REPORTING VARIABLES SUCH AS SKY/WEATHER OR
PRESSURE ARE PROVIDED BY THE NEBRASKA DEPARTMENT OF
ROADS...RAWS...AND APRS NETWORKS...AND ARE NOT UNDER
NATIONAL WEATHER SERVICE QUALITY CONTROL.

...OBSERVATIONS IN AND NEAR THE EASTERN PANHANDLE OF NEBRASKA...

CITY           SKY/WX    TMP DP  RH WIND       PRES   REMARKS
PINE RIDGE     SUNNY     59  25  27 W10       29.94F
CHADRON        SUNNY     61  27  27 W24G31    29.97F
ALLIANCE       SUNNY     40  31  70 W12       29.99F WCI  33
SIDNEY         CLOUDY    50  29  44 NW14      30.04F
CRESCENT LAKE    N/A     58  28  31 NW14G22     N/A
BIG SPRINGS      N/A     48  35  60 W5          N/A
$$

...OBSERVATIONS IN NORTH CENTRAL NEBRASKA...

CITY           SKY/WX    TMP DP  RH WIND       PRES   REMARKS
VALENTINE      SUNNY     54  29  38 NW16G24   29.87F
THEDFORD       SUNNY     62  28  27 NW18G26   29.89F
AINSWORTH      SUNNY     58  25  28 NW23G31   29.85F
O`NEILL        SUNNY     51  32  49 NW8       29.84F
ORD            SUNNY     48  30  49 W9        29.85F
BROKEN BOW     SUNNY     55  30  38 W9        29.88F
VALENTINE NWR    N/A     59  24  26 NW20G30     N/A
BUTTE            N/A     45  31  58 N8          N/A
HALSEY           N/A     61  25  25 NW12G23     N/A
CHAMBERS         N/A     52  31  44 W6          N/A
EWING            N/A     44  33  64 NW3         N/A
$$

...OBSERVATIONS IN SOUTHWEST NEBRASKA AND FAR NORTHEAST COLORADO...

CITY           SKY/WX    TMP DP  RH WIND       PRES   REMARKS
WRAY           FAIR      53  26  35 W14       30.05S
HOLYOKE        FAIR      54  32  43 W10G17    30.03F
IMPERIAL       SUNNY     48  29  47 W14       30.00F
OGALLALA       SUNNY     50  27  40 W16       29.97S
NORTH PLATTE   SUNNY     49  30  48 NW15      29.93F
MCCOOK         SUNNY     48  29  47 W17       29.96F
LEXINGTON      SUNNY     46  31  54 NW14      29.91F
PAXTON           N/A     50  35  57 W7          N/A
STAPLETON        N/A     54  33  44 W3          N/A
GOTHENBURG       N/A     52  29  40 NW9         N/A
CALLAWAY         N/A     49  33  54 W12         N/A
$$

...OBSERVATIONS IN CENTRAL LINCOLN COUNTY AREA...

CITY           SKY/WX    TMP DP  RH WIND       PRES   REMARKS
N.P. AIRPORT   SUNNY     49  30  48 NW15      29.93F
N.P. DOWNTOWN    N/A     52  33  48 W6          N/A
N.P. SOUTHEAST   N/A     53  31  42 NW7G18      N/A
N.P. HILLCREST   N/A     51  33  50 NW12        N/A
$$

...SOME OBSERVATIONS FROM AROUND THE REGION...

CITY           SKY/WX    TMP DP  RH WIND       PRES   REMARKS
DENVER         MOSUNNY   63  20  19 W15       30.13F
LARAMIE        SUNNY     46  21  37 W18G29    30.19F
CHEYENNE       SUNNY     55  19  24 W26G37    30.13F
SCOTTSBLUFF    SUNNY     59  25  27 W23G29    30.02F
RAPID CITY     SUNNY     63  19  18 NW35G41   29.91R
BISMARCK       CLOUDY    25  15  66 NE9       29.99R WCI  15
PIERRE         SUNNY     45  29  53 N12       29.86S
WINNER           N/A    N/A N/A N/A MISG      29.84F
SIOUX FALLS    CLOUDY    18  13  80 E15       29.96S WCI   4
OMAHA          MOSUNNY   34  22  61 S8        29.92F WCI  27
GRAND ISLAND   SUNNY     43  30  60 W10       29.88F
KANSAS CITY    MOSUNNY   41  18  39 SW20      29.94F
WICHITA        SUNNY     55  29  36 S13       29.98F
OKLAHOMA CITY  SUNNY     65  30  27 SW21G28   30.08F
LIBERAL        SUNNY     73  25  16 NW9       30.07F
HAYS           SUNNY     59  30  33 W21       29.97F
GOODLAND       SUNNY     55  27  34 NW15      30.05F
$$




USA.gov is the U.S. government's official web portal to all federal, state and local government web resources and services.